Home   Weather   Haarlem   Past weeks
Flag for Netherlands

Past Weather in Haarlem, Netherlands — Yesterday and Last 2 Weeks

Now
57 °F

Passing clouds.


Feels Like: 55 °F
Forecast: 57 / 53 °F
Wind: 8 mph from West

Location: Amsterdam Schiphol Airport

Current Time: Oct 17, 2019 at 2:29:02 am

Latest Report: Oct 17, 2019 at 1:55 am


Visibility: 3 mi

Pressure: 29.68 "Hg

Humidity: 94%

Dew Point: 55 °F

Location of HaarlemLocation

Past Weather in Haarlem — Graph

°F

Haarlem Temperature Yesterday

Maximum temperature yesterday: 59 °F (at 6:55 pm)
Minimum temperature yesterday: 52 °F (at 5:25 am)
Average temperature yesterday: 56 °F

High & Low Weather Summary for the Past Weeks

 TemperatureHumidityPressure
High70 °F (Oct 13, 2:25 pm)100% (Oct 3, 3:25 am)30.07 "Hg (Oct 3, 3:25 am)
Low39 °F (Oct 5, 6:55 am)58% (Oct 2, 11:25 am)29.53 "Hg (Oct 4, 11:25 am)
Average54 °F87%29.80 "Hg
* Reported Oct 2 1:25 am — Oct 17 1:25 am, Haarlem. Weather by CustomWeather, © 2019

Note: Actual official high and low records may vary slightly from our data, if they occured in-between our weather recording intervals... More about our weather records

Advertising

Haarlem Weather History for the Previous 24 Hours

Scroll right to see more
 ConditionsComfort  
Time TempWeatherWind HumidityBarometerVisibility
1:25 am
Thu, Oct 17
57 °FPassing clouds.12 mph100%29.68 "Hg4 mi
12:55 am57 °FPassing clouds.13 mph100%29.68 "Hg4 mi
12:25 am57 °FPassing clouds.15 mph100%29.68 "Hg3 mi
11:55 pm
Wed, Oct 16
57 °FPassing clouds.14 mph100%29.68 "Hg3 mi
11:25 pm59 °FPassing clouds.14 mph94%29.68 "Hg4 mi
10:55 pm59 °FPassing clouds.14 mph94%29.68 "Hg6 mi
10:25 pm59 °FPassing clouds.14 mph94%29.68 "HgN/A
9:55 pm59 °FPassing clouds.15 mph94%29.65 "HgN/A
9:25 pm59 °FPassing clouds.14 mph94%29.65 "Hg6 mi
8:55 pm59 °FPassing clouds.14 mph94%29.68 "Hg4 mi
8:25 pm59 °FPassing clouds.14 mph94%29.68 "Hg4 mi
7:55 pm59 °FPassing clouds.14 mph94%29.68 "HgN/A
7:25 pm57 °FPassing clouds.15 mph100%29.68 "Hg4 mi
6:55 pm59 °FPartly cloudy.15 mph94%29.65 "Hg5 mi
6:25 pm57 °FDrizzle. Broken clouds.15 mph100%29.65 "Hg3 mi
5:55 pm57 °FDrizzle. Broken clouds.14 mph100%29.65 "Hg3 mi
5:25 pm57 °FDrizzle. Partly sunny.13 mph100%29.65 "Hg2 mi
4:55 pm57 °FDrizzle. Partly sunny.14 mph100%29.65 "Hg2 mi
4:25 pm57 °FDrizzle. Partly sunny.14 mph94%29.68 "Hg3 mi
3:55 pm57 °FDrizzle. Partly sunny.14 mph94%29.68 "Hg3 mi
3:25 pm57 °FDrizzle. Partly sunny.15 mph94%29.68 "Hg6 mi
2:55 pm57 °FDrizzle. Partly sunny.15 mph94%29.68 "Hg4 mi
2:25 pm57 °FPartly sunny.16 mph88%29.68 "HgN/A
1:55 pm57 °FDrizzle. Partly sunny.16 mph88%29.68 "HgN/A
1:25 pm57 °FPartly sunny.20 mph82%29.71 "HgN/A
12:55 pm57 °FDrizzle. Partly sunny.17 mph82%29.71 "HgN/A
12:25 pm57 °FPartly sunny.16 mph82%29.71 "HgN/A
11:55 am57 °FPartly sunny.16 mph82%29.71 "HgN/A
11:25 am55 °FScattered clouds.18 mph88%29.74 "HgN/A
10:55 am55 °FScattered clouds.16 mph88%29.74 "HgN/A
10:25 am54 °FScattered clouds.14 mph94%29.74 "HgN/A
9:55 am54 °FPassing clouds.10 mph88%29.74 "HgN/A
9:25 am52 °FPassing clouds.9 mph94%29.74 "HgN/A
8:55 am52 °FPassing clouds.9 mph94%29.74 "HgN/A
8:25 am54 °FPartly sunny.12 mph94%29.74 "Hg6 mi
7:55 am52 °FPassing clouds.12 mph94%29.74 "Hg6 mi
7:25 am52 °FPassing clouds.9 mph94%29.74 "HgN/A
6:55 am52 °FPassing clouds.10 mph94%29.74 "HgN/A
6:25 am52 °FPassing clouds.10 mph94%29.74 "HgN/A
5:55 am52 °FPassing clouds.10 mph94%29.74 "HgN/A
5:25 am52 °FPassing clouds.10 mph94%29.74 "HgN/A
4:55 am54 °FPassing clouds.9 mph94%29.74 "HgN/A
4:25 am54 °FPassing clouds.8 mph94%29.74 "HgN/A
3:55 am54 °FPassing clouds.8 mph94%29.74 "HgN/A
3:25 am54 °FPassing clouds.7 mph94%29.74 "HgN/A
2:55 am54 °FPassing clouds.7 mph94%29.74 "HgN/A
2:25 am54 °FPassing clouds.8 mph94%29.74 "HgN/A
Weather by CustomWeather, © 2019

See weather overview